Time,TemperatureF,DewpointF,PressureIn,WindDirection,WindDirectionDegrees,WindSpeedMPH,WindSpeedGustMPH,Humidity,HourlyPrecipIn,Conditions,Clouds,dailyrainin,SoftwareType,DateUTC
2013-02-01 00:03:00,44.2,42.6,29.32,East,90,1.2,1.2,94,0.00,RA,,0.00,WeatherDisplay:10.37,2013-02-01 08:03:00,
2013-02-01 00:08:00,44.2,42.6,29.32,East,90,2.3,2.3,94,0.00,RA,,0.00,WeatherDisplay:10.37,2013-02-01 08:08:00,
2013-02-01 00:13:00,44.2,42.6,29.31,ENE,68,1.2,1.2,94,0.00,CLR,,0.00,WeatherDisplay:10.37,2013-02-01 08:13:00,
2013-02-01 00:18:00,44.2,42.6,29.31,East,90,3.5,3.5,94,0.00,CLR,,0.00,WeatherDisplay:10.37,2013-02-01 08:18:00,
2013-02-01 00:24:00,44.4,43.1,29.31,East,90,2.3,2.3,95,0.00,CLR,,0.00,WeatherDisplay:10.37,2013-02-01 08:24:00,
2013-02-01 00:29:00,44.2,42.6,29.31,ESE,112,1.2,1.2,94,0.00,CLR,,0.00,WeatherDisplay:10.37,2013-02-01 08:29:00,
2013-02-01 00:34:00,44.2,42.6,29.31,ENE,68,1.2,1.2,94,0.00,CLR,,0.00,WeatherDisplay:10.37,2013-02-01 08:34:00,
2013-02-01 00:39:00,44.4,42.8,29.31,ENE,68,0.5,0.5,94,0.00,CLR,,0.00,WeatherDisplay:10.37,2013-02-01 08:39:00,
2013-02-01 00:44:00,44.4,42.8,29.31,East,90,0.0,0.0,94,0.00,CLR,,0.00,WeatherDisplay:10.37,2013-02-01 08:44:00,
2013-02-01 00:49:00,44.2,42.6,29.31,East,90,0.0,0.0,94,0.00,CLR,,0.00,WeatherDisplay:10.37,2013-02-01 08:49:00,
2013-02-01 00:54:00,44.2,42.6,29.31,ENE,68,0.0,0.0,94,0.00,CLR,,0.00,WeatherDisplay:10.37,2013-02-01 08:54:00,
2013-02-01 00:59:00,44.2,42.6,29.31,NNW,338,0.0,0.0,94,0.00,CLR,,0.00,WeatherDisplay:10.37,2013-02-01 08:59:00,
2013-02-01 01:04:00,44.2,42.6,29.31,NNW,338,0.0,0.0,94,0.00,CLR,,0.00,WeatherDisplay:10.37,2013-02-01 09:04:00,
2013-02-01 01:09:00,44.1,42.4,29.31,NNW,338,0.0,0.0,94,0.00,CLR,,0.00,WeatherDisplay:10.37,2013-02-01 09:09:00,
2013-02-01 01:14:00,44.1,42.4,29.31,NNW,338,0.0,0.0,94,0.00,CLR,,0.00,WeatherDisplay:10.37,2013-02-01 09:14:00,
2013-02-01 01:19:00,43.9,42.3,29.31,NW,315,1.2,1.2,94,0.00,CLR,,0.00,WeatherDisplay:10.37,2013-02-01 09:19:00,
2013-02-01 01:24:00,44.1,42.4,29.32,NNW,338,0.5,0.5,94,0.00,CLR,,0.00,WeatherDisplay:10.37,2013-02-01 09:24:00,
2013-02-01 01:29:00,44.1,42.4,29.32,NNW,338,0.0,0.0,94,0.00,CLR,,0.00,WeatherDisplay:10.37,2013-02-01 09:29:00,
2013-02-01 01:34:00,43.9,42.3,29.32,NNW,338,0.0,0.0,94,0.00,CLR,,0.00,WeatherDisplay:10.37,2013-02-01 09:34:00,
2013-02-01 01:39:00,43.9,42.3,29.32,NNW,338,0.0,0.0,94,0.00,CLR,,0.00,WeatherDisplay:10.37,2013-02-01 09:39:00,
2013-02-01 01:44:00,44.1,42.4,29.32,NNW,338,0.0,0.0,94,0.00,CLR,,0.00,WeatherDisplay:10.37,2013-02-01 09:44:00,
2013-02-01 01:49:00,43.9,42.3,29.32,NNW,338,0.0,0.0,94,0.00,CLR,,0.00,WeatherDisplay:10.37,2013-02-01 09:49:00,
2013-02-01 01:54:00,43.9,42.3,29.32,NNE,22,0.0,0.0,94,0.00,CLR,,0.00,WeatherDisplay:10.37,2013-02-01 09:54:00,
2013-02-01 01:59:00,43.9,42.3,29.32,ENE,68,1.2,1.2,94,0.00,CLR,,0.00,WeatherDisplay:10.37,2013-02-01 09:59:00,
2013-02-01 02:04:00,43.9,42.3,29.32,NE,45,1.2,1.2,94,0.00,CLR,,0.00,WeatherDisplay:10.37,2013-02-01 10:04:00,
2013-02-01 02:09:00,43.9,42.3,29.32,East,90,1.2,1.2,94,0.00,CLR,,0.00,WeatherDisplay:10.37,2013-02-01 10:09:00,
2013-02-01 02:14:00,43.9,42.3,29.32,ESE,112,2.3,2.3,94,0.00,CLR,,0.00,WeatherDisplay:10.37,2013-02-01 10:14:00,
2013-02-01 02:19:00,44.1,42.4,29.32,ESE,112,2.3,2.4,94,0.00,CLR,,0.00,WeatherDisplay:10.37,2013-02-01 10:19:00,
2013-02-01 02:24:00,44.1,42.7,29.31,East,90,2.3,2.3,95,0.00,CLR,,0.00,WeatherDisplay:10.37,2013-02-01 10:24:00,
2013-02-01 02:29:00,43.9,42.5,29.31,ESE,112,2.3,2.3,95,0.00,CLR,,0.00,WeatherDisplay:10.37,2013-02-01 10:29:00,
2013-02-01 02:34:00,43.9,42.5,29.31,East,90,2.4,2.4,95,0.00,CLR,,0.00,WeatherDisplay:10.37,2013-02-01 10:34:00,
2013-02-01 02:39:00,43.9,42.3,29.31,ENE,68,2.3,2.3,94,0.00,CLR,,0.00,WeatherDisplay:10.37,2013-02-01 10:39:00,
2013-02-01 02:44:00,43.7,42.1,29.31,SE,135,4.6,4.6,94,0.00,CLR,,0.00,WeatherDisplay:10.37,2013-02-01 10:44:00,
2013-02-01 02:49:00,43.5,41.9,29.31,ESE,112,2.4,2.4,94,0.00,CLR,,0.00,WeatherDisplay:10.37,2013-02-01 10:49:00,
2013-02-01 02:54:00,43.5,41.9,29.31,SSE,158,3.5,3.5,94,0.00,CLR,,0.00,WeatherDisplay:10.37,2013-02-01 10:54:00,
2013-02-01 02:59:00,43.5,41.9,29.31,WNW,292,1.2,1.2,94,0.00,CLR,,0.00,WeatherDisplay:10.37,2013-02-01 10:59:00,
2013-02-01 03:04:00,43.2,41.6,29.31,WNW,292,1.2,1.2,94,0.00,CLR,,0.00,WeatherDisplay:10.37,2013-02-01 11:04:00,
2013-02-01 03:09:00,43.0,41.4,29.31,WNW,292,3.1,3.1,94,0.00,CLR,,0.00,WeatherDisplay:10.37,2013-02-01 11:09:00,
2013-02-01 03:14:00,42.8,41.5,29.31,WNW,292,2.3,2.3,95,0.00,CLR,,0.00,WeatherDisplay:10.37,2013-02-01 11:14:00,
2013-02-01 03:19:00,42.8,41.5,29.31,NNW,338,1.2,0.0,95,0.00,CLR,,0.00,WeatherDisplay:10.37,2013-02-01 11:19:00,
2013-02-01 03:24:00,42.6,41.3,29.31,NNW,338,0.2,0.2,95,0.00,CLR,,0.00,WeatherDisplay:10.37,2013-02-01 11:24:00,
2013-02-01 03:29:00,42.3,40.7,29.31,NNW,338,1.2,0.0,94,0.00,CLR,,0.00,WeatherDisplay:10.37,2013-02-01 11:29:00,
2013-02-01 03:34:00,42.1,40.5,29.31,North,0,0.0,0.0,94,0.00,CLR,,0.00,WeatherDisplay:10.37,2013-02-01 11:34:00,
2013-02-01 03:39:00,41.7,40.1,29.31,NNW,338,0.0,0.0,94,0.00,CLR,,0.00,WeatherDisplay:10.37,2013-02-01 11:39:00,
2013-02-01 03:44:00,41.4,39.8,29.31,North,0,0.0,1.2,94,0.00,CLR,,0.00,WeatherDisplay:10.37,2013-02-01 11:44:00,
2013-02-01 03:49:00,41.4,39.8,29.31,NE,45,1.2,1.2,94,0.00,CLR,,0.00,WeatherDisplay:10.37,2013-02-01 11:49:00,
2013-02-01 03:54:00,41.4,40.0,29.31,NE,45,2.3,2.3,95,0.00,CLR,,0.00,WeatherDisplay:10.37,2013-02-01 11:54:00,
2013-02-01 03:59:00,41.4,40.0,29.31,ENE,68,2.3,2.3,95,0.00,CLR,,0.00,WeatherDisplay:10.37,2013-02-01 11:59:00,
2013-02-01 04:04:00,41.7,40.4,29.31,NE,45,1.4,1.4,95,0.00,CLR,,0.00,WeatherDisplay:10.37,2013-02-01 12:04:00,
2013-02-01 04:09:00,41.7,40.4,29.31,NE,45,1.2,1.2,95,0.00,CLR,,0.00,WeatherDisplay:10.37,2013-02-01 12:09:00,
2013-02-01 04:14:00,41.7,40.4,29.31,NE,45,1.2,1.2,95,0.00,CLR,,0.00,WeatherDisplay:10.37,2013-02-01 12:14:00,
2013-02-01 04:19:00,41.9,40.6,29.31,NE,45,1.2,1.2,95,0.00,CLR,,0.00,WeatherDisplay:10.37,2013-02-01 12:19:00,
2013-02-01 04:24:00,41.9,40.6,29.31,North,0,1.2,1.2,95,0.00,CLR,,0.00,WeatherDisplay:10.37,2013-02-01 12:24:00,
2013-02-01 04:29:00,41.7,40.1,29.31,SE,135,1.2,1.2,94,0.00,CLR,,0.00,WeatherDisplay:10.37,2013-02-01 12:29:00,
2013-02-01 04:34:00,41.4,40.0,29.31,WNW,292,0.5,0.5,95,0.00,CLR,,0.00,WeatherDisplay:10.37,2013-02-01 12:34:00,
2013-02-01 04:39:00,41.2,39.6,29.31,NE,45,1.2,1.2,94,0.00,CLR,,0.00,WeatherDisplay:10.37,2013-02-01 12:39:00,
2013-02-01 04:44:00,41.0,39.4,29.31,NNE,22,0.0,0.0,94,0.01,RA,,0.01,WeatherDisplay:10.37,2013-02-01 12:44:00,
2013-02-01 04:49:00,40.8,39.2,29.31,North,0,0.0,0.0,94,0.01,RA,,0.01,WeatherDisplay:10.37,2013-02-01 12:49:00,
2013-02-01 04:54:00,40.8,39.5,29.31,ENE,68,1.2,1.2,95,0.01,CLR,,0.01,WeatherDisplay:10.37,2013-02-01 12:54:00,
2013-02-01 04:59:00,41.2,39.9,29.31,East,90,1.4,1.4,95,0.01,CLR,,0.01,WeatherDisplay:10.37,2013-02-01 12:59:00,
2013-02-01 05:04:00,41.4,40.0,29.31,East,90,0.0,0.0,95,0.01,CLR,,0.01,WeatherDisplay:10.37,2013-02-01 13:04:00,
2013-02-01 05:09:00,41.4,40.0,29.31,WNW,292,1.2,1.2,95,0.01,CLR,,0.01,WeatherDisplay:10.37,2013-02-01 13:09:00,
2013-02-01 05:14:00,41.5,40.2,29.31,NW,315,0.5,0.5,95,0.01,CLR,,0.01,WeatherDisplay:10.37,2013-02-01 13:14:00,
2013-02-01 05:19:00,41.7,40.4,29.31,NW,309,1.0,1.0,95,0.00,CLR,CLR,0.01,WeatherDisplay:10.37,2013-02-01 13:19:00,
2013-02-01 05:24:00,41.7,40.4,29.31,WNW,292,1.2,0.0,95,0.01,CLR,,0.01,WeatherDisplay:10.37,2013-02-01 13:24:00,
2013-02-01 05:29:00,41.9,40.6,29.31,WNW,292,0.0,0.0,95,0.01,CLR,,0.01,WeatherDisplay:10.37,2013-02-01 13:29:00,
2013-02-01 05:34:00,41.9,40.6,29.31,WNW,292,0.0,0.0,95,0.00,CLR,CLR,0.01,WeatherDisplay:10.37,2013-02-01 13:34:00,
2013-02-01 05:39:00,41.9,40.6,29.31,North,0,0.0,0.0,95,0.01,CLR,,0.01,WeatherDisplay:10.37,2013-02-01 13:39:00,
2013-02-01 05:44:00,41.9,40.6,29.31,NNE,22,1.2,1.2,95,0.00,CLR,,0.01,WeatherDisplay:10.37,2013-02-01 13:44:00,
2013-02-01 05:49:00,42.0,40.6,29.31,NE,44,0.0,1.0,95,0.00,CLR,CLR,0.01,WeatherDisplay:10.37,2013-02-01 13:49:00,
2013-02-01 05:54:00,41.9,40.6,29.31,ENE,68,0.0,0.0,95,0.00,CLR,,0.01,WeatherDisplay:10.37,2013-02-01 13:54:00,
2013-02-01 05:59:00,42.1,40.8,29.31,ENE,68,0.0,0.0,95,0.00,CLR,,0.01,WeatherDisplay:10.37,2013-02-01 13:59:00,
2013-02-01 06:04:00,42.1,40.8,29.31,ENE,68,0.0,0.0,95,0.00,CLR,,0.01,WeatherDisplay:10.37,2013-02-01 14:04:00,
2013-02-01 06:09:00,42.1,40.8,29.31,ENE,68,0.0,0.0,95,0.00,CLR,,0.01,WeatherDisplay:10.37,2013-02-01 14:09:00,
2013-02-01 06:14:00,42.1,40.8,29.31,ENE,68,0.0,0.0,95,0.00,CLR,CLR,0.01,WeatherDisplay:10.37,2013-02-01 14:14:00,
2013-02-01 06:19:00,42.1,40.8,29.31,ENE,68,0.0,0.0,95,0.00,CLR,,0.01,WeatherDisplay:10.37,2013-02-01 14:19:00,
2013-02-01 06:24:00,42.1,40.8,29.31,NE,45,0.0,0.0,95,0.00,CLR,,0.01,WeatherDisplay:10.37,2013-02-01 14:24:00,
2013-02-01 06:29:00,42.1,40.8,29.31,ENE,68,0.0,0.0,95,0.00,CLR,,0.01,WeatherDisplay:10.37,2013-02-01 14:29:00,
2013-02-01 06:34:00,42.1,40.8,29.30,West,270,0.0,0.0,95,0.00,CLR,,0.01,WeatherDisplay:10.37,2013-02-01 14:34:00,
2013-02-01 06:39:00,42.1,40.8,29.30,WNW,292,0.0,0.0,95,0.00,CLR,CLR,0.01,WeatherDisplay:10.37,2013-02-01 14:39:00,
2013-02-01 06:44:00,42.1,40.8,29.30,West,270,0.0,0.0,95,0.00,CLR,CLR,0.01,WeatherDisplay:10.37,2013-02-01 14:44:00,
2013-02-01 06:49:00,42.1,40.8,29.30,ENE,68,1.2,1.2,95,0.00,CLR,,0.01,WeatherDisplay:10.37,2013-02-01 14:49:00,
2013-02-01 06:54:00,42.1,40.8,29.30,ENE,60,0.0,1.0,95,0.00,CLR,CLR,0.01,WeatherDisplay:10.37,2013-02-01 14:54:00,
2013-02-01 06:59:00,42.1,40.8,29.30,NE,48,0.0,0.0,95,0.00,CLR,CLR,0.01,WeatherDisplay:10.37,2013-02-01 14:59:00,
2013-02-01 07:04:00,42.1,40.8,29.30,NNW,338,0.0,0.0,95,0.00,CLR,,0.01,WeatherDisplay:10.37,2013-02-01 15:04:00,
2013-02-01 07:09:00,42.1,40.8,29.30,NNW,348,0.0,0.0,95,0.00,CLR,CLR,0.01,WeatherDisplay:10.37,2013-02-01 15:09:00,
2013-02-01 07:14:00,42.1,40.8,29.30,NW,315,1.2,0.0,95,0.00,CLR,,0.01,WeatherDisplay:10.37,2013-02-01 15:14:00,
2013-02-01 07:19:00,42.1,40.8,29.30,NW,315,0.0,1.0,95,0.00,CLR,CLR,0.01,WeatherDisplay:10.37,2013-02-01 15:19:00,
2013-02-01 07:24:00,42.1,40.8,29.30,NW,315,0.0,0.0,95,0.00,CLR,CLR,0.01,WeatherDisplay:10.37,2013-02-01 15:24:00,
2013-02-01 07:29:00,42.1,40.8,29.30,NW,315,0.0,0.0,95,0.00,CLR,,0.01,WeatherDisplay:10.37,2013-02-01 15:29:00,
2013-02-01 07:34:00,42.1,40.8,29.30,NW,315,0.0,0.0,95,0.00,CLR,,0.01,WeatherDisplay:10.37,2013-02-01 15:34:00,
2013-02-01 07:39:00,42.1,40.8,29.30,NW,315,0.0,0.0,95,0.00,CLR,CLR,0.01,WeatherDisplay:10.37,2013-02-01 15:39:00,
2013-02-01 07:44:00,42.1,40.8,29.30,NW,315,0.0,0.0,95,0.00,CLR,,0.01,WeatherDisplay:10.37,2013-02-01 15:44:00,
2013-02-01 07:49:00,42.1,40.8,29.30,NW,315,0.0,0.7,95,0.00,CLR,,0.01,WeatherDisplay:10.37,2013-02-01 15:49:00,
2013-02-01 07:54:00,42.1,40.8,29.30,WNW,285,0.0,1.0,95,0.00,CLR,CLR,0.01,WeatherDisplay:10.37,2013-02-01 15:54:00,
2013-02-01 07:59:00,42.1,40.8,29.31,SE,135,1.2,1.2,95,0.00,CLR,,0.01,WeatherDisplay:10.37,2013-02-01 15:59:00,
2013-02-01 08:04:00,42.1,40.8,29.31,SW,233,0.0,0.0,95,0.00,CLR,CLR,0.01,WeatherDisplay:10.37,2013-02-01 16:04:00,
2013-02-01 08:09:00,42.3,40.9,29.31,SW,225,0.0,0.0,95,0.00,CLR,,0.01,WeatherDisplay:10.37,2013-02-01 16:09:00,
2013-02-01 08:14:00,42.4,41.1,29.31,WNW,292,0.2,0.2,95,0.00,CLR,,0.01,WeatherDisplay:10.37,2013-02-01 16:14:00,
2013-02-01 08:19:00,42.5,41.2,29.31,West,266,0.0,0.0,95,0.00,CLR,CLR,0.01,WeatherDisplay:10.37,2013-02-01 16:19:00,
2013-02-01 08:24:00,42.8,41.5,29.31,NW,315,1.2,0.0,95,0.00,CLR,,0.01,WeatherDisplay:10.37,2013-02-01 16:24:00,
2013-02-01 08:29:00,43.0,41.6,29.31,NW,315,0.0,0.0,95,0.00,CLR,,0.01,WeatherDisplay:10.37,2013-02-01 16:29:00,
2013-02-01 08:34:00,43.2,41.8,29.31,West,270,0.0,0.0,95,0.00,CLR,,0.01,WeatherDisplay:10.37,2013-02-01 16:34:00,
2013-02-01 08:39:00,43.5,42.2,29.32,WNW,289,0.0,0.0,95,0.00,CLR,CLR,0.01,WeatherDisplay:10.37,2013-02-01 16:39:00,
2013-02-01 08:44:00,43.9,42.5,29.32,WNW,302,0.0,0.0,95,0.00,CLR,CLR,0.01,WeatherDisplay:10.37,2013-02-01 16:44:00,
2013-02-01 08:49:00,44.1,42.7,29.32,North,4,0.0,1.0,95,0.00,CLR,CLR,0.01,WeatherDisplay:10.37,2013-02-01 16:49:00,
2013-02-01 08:54:00,44.2,42.6,29.32,SE,135,1.2,1.2,94,0.00,CLR,,0.01,WeatherDisplay:10.37,2013-02-01 16:54:00,
2013-02-01 08:59:00,44.2,42.6,29.32,SSE,158,1.4,1.4,94,0.00,CLR,,0.01,WeatherDisplay:10.37,2013-02-01 16:59:00,
2013-02-01 09:04:00,43.9,42.3,29.32,ESE,112,2.3,2.3,94,0.00,CLR,,0.01,WeatherDisplay:10.37,2013-02-01 17:04:00,
2013-02-01 09:09:00,43.7,42.1,29.32,South,180,1.2,1.2,94,0.00,CLR,,0.01,WeatherDisplay:10.37,2013-02-01 17:09:00,
2013-02-01 09:14:00,43.7,42.1,29.32,SE,135,1.2,1.2,94,0.00,CLR,,0.01,WeatherDisplay:10.37,2013-02-01 17:14:00,
2013-02-01 09:19:00,43.7,42.1,29.32,SSE,158,2.3,2.3,94,0.00,CLR,,0.01,WeatherDisplay:10.37,2013-02-01 17:19:00,
2013-02-01 09:24:00,44.1,42.4,29.32,SSW,202,1.2,1.2,94,0.00,CLR,,0.01,WeatherDisplay:10.37,2013-02-01 17:24:00,
2013-02-01 09:29:00,44.2,42.3,29.32,SSW,198,1.0,2.0,93,0.00,CLR,CLR,0.01,WeatherDisplay:10.37,2013-02-01 17:29:00,
2013-02-01 09:34:00,44.5,42.6,29.32,SSW,194,1.0,2.0,93,0.00,CLR,CLR,0.01,WeatherDisplay:10.37,2013-02-01 17:34:00,
2013-02-01 09:39:00,44.9,43.0,29.32,SSW,211,0.0,1.0,93,0.00,CLR,CLR,0.01,WeatherDisplay:10.37,2013-02-01 17:39:00,
2013-02-01 09:44:00,45.8,44.2,29.32,WSW,250,1.0,2.0,94,0.00,CLR,CLR,0.01,WeatherDisplay:10.37,2013-02-01 17:44:00,
2013-02-01 09:49:00,47.1,45.2,29.32,WNW,292,1.2,1.2,93,0.00,CLR,,0.01,WeatherDisplay:10.37,2013-02-01 17:49:00,
2013-02-01 09:54:00,47.6,45.4,29.32,WSW,254,1.0,2.0,92,0.00,CLR,CLR,0.01,WeatherDisplay:10.37,2013-02-01 17:54:00,
2013-02-01 09:59:00,48.4,45.9,29.32,SW,225,2.3,2.3,91,0.00,CLR,,0.01,WeatherDisplay:10.37,2013-02-01 17:59:00,
2013-02-01 10:04:00,49.1,46.3,29.33,West,270,1.2,1.2,90,0.00,CLR,,0.01,WeatherDisplay:10.37,2013-02-01 18:04:00,
2013-02-01 10:09:00,49.3,46.2,29.33,West,271,1.0,2.0,89,0.00,CLR,CLR,0.01,WeatherDisplay:10.37,2013-02-01 18:09:00,
2013-02-01 10:14:00,50.0,46.6,29.33,West,274,2.0,2.0,88,0.00,CLR,CLR,0.01,WeatherDisplay:10.37,2013-02-01 18:14:00,
2013-02-01 10:19:00,49.8,45.2,29.33,West,281,2.0,5.0,84,0.00,CLR,CLR,0.01,WeatherDisplay:10.37,2013-02-01 18:19:00,
2013-02-01 10:24:00,49.4,44.7,29.33,WNW,288,1.0,2.0,84,0.00,CLR,CLR,0.01,WeatherDisplay:10.37,2013-02-01 18:24:00,
2013-02-01 10:29:00,49.6,45.6,29.33,West,270,2.3,2.3,86,0.00,CLR,,0.01,WeatherDisplay:10.37,2013-02-01 18:29:00,
2013-02-01 10:34:00,50.0,45.7,29.33,WNW,292,1.2,1.2,85,0.00,CLR,,0.01,WeatherDisplay:10.37,2013-02-01 18:34:00,
2013-02-01 10:39:00,50.1,46.1,29.33,WNW,287,0.0,1.0,86,0.00,CLR,CLR,0.01,WeatherDisplay:10.37,2013-02-01 18:39:00,
2013-02-01 10:44:00,50.0,45.7,29.33,NW,315,1.2,1.2,85,0.00,CLR,,0.01,WeatherDisplay:10.37,2013-02-01 18:44:00,
2013-02-01 10:49:00,49.3,44.6,29.34,West,270,1.2,1.2,84,0.00,CLR,,0.01,WeatherDisplay:10.37,2013-02-01 18:49:00,
2013-02-01 10:54:00,48.9,44.3,29.34,WNW,291,1.0,2.0,84,0.00,CLR,CLR,0.01,WeatherDisplay:10.37,2013-02-01 18:54:00,
2013-02-01 10:59:00,48.7,44.4,29.34,West,270,1.2,1.2,85,0.00,CLR,,0.01,WeatherDisplay:10.37,2013-02-01 18:59:00,
2013-02-01 11:04:00,48.9,44.6,29.34,NW,315,0.2,0.2,85,0.00,CLR,,0.01,WeatherDisplay:10.37,2013-02-01 19:04:00,
2013-02-01 11:09:00,49.3,45.0,29.33,East,90,0.5,0.5,85,0.00,CLR,,0.01,WeatherDisplay:10.37,2013-02-01 19:09:00,
2013-02-01 11:14:00,50.0,46.0,29.33,SE,135,1.6,1.6,86,0.00,CLR,,0.01,WeatherDisplay:10.37,2013-02-01 19:14:00,
2013-02-01 11:19:00,50.7,46.7,29.33,SE,128,1.0,2.0,86,0.00,CLR,CLR,0.01,WeatherDisplay:10.37,2013-02-01 19:19:00,
2013-02-01 11:24:00,51.3,46.9,29.33,South,180,0.0,0.2,85,0.00,CLR,,0.01,WeatherDisplay:10.37,2013-02-01 19:24:00,
2013-02-01 11:29:00,51.6,46.9,29.33,South,180,2.3,2.3,84,0.00,CLR,,0.01,WeatherDisplay:10.37,2013-02-01 19:29:00,
2013-02-01 11:34:00,51.3,46.0,29.32,SSW,193,2.0,2.0,82,0.00,CLR,CLR,0.01,WeatherDisplay:10.37,2013-02-01 19:34:00,
2013-02-01 11:39:00,50.0,45.4,29.32,SSW,202,2.3,2.3,84,0.00,CLR,,0.01,WeatherDisplay:10.37,2013-02-01 19:39:00,
2013-02-01 11:44:00,49.5,44.8,29.32,West,270,2.3,2.3,84,0.00,CLR,,0.01,WeatherDisplay:10.37,2013-02-01 19:44:00,
2013-02-01 11:49:00,49.3,45.0,29.32,SSW,208,1.0,2.0,85,0.00,CLR,CLR,0.01,WeatherDisplay:10.37,2013-02-01 19:49:00,
2013-02-01 11:54:00,49.3,45.0,29.32,SW,225,2.3,2.3,85,0.00,CLR,,0.01,WeatherDisplay:10.37,2013-02-01 19:54:00,
2013-02-01 11:59:00,49.1,45.1,29.32,WNW,292,2.6,2.6,86,0.00,CLR,,0.01,WeatherDisplay:10.37,2013-02-01 19:59:00,
2013-02-01 12:04:00,48.9,44.9,29.32,WSW,242,1.0,3.0,86,0.00,CLR,CLR,0.01,WeatherDisplay:10.37,2013-02-01 20:04:00,
2013-02-01 12:09:00,48.9,45.2,29.31,SSW,202,2.3,2.3,87,0.00,CLR,,0.01,WeatherDisplay:10.37,2013-02-01 20:09:00,
2013-02-01 12:14:00,49.3,45.6,29.31,SW,229,0.0,1.0,87,0.00,CLR,CLR,0.01,WeatherDisplay:10.37,2013-02-01 20:14:00,
2013-02-01 12:19:00,49.5,45.8,29.31,West,270,1.8,1.8,87,0.00,CLR,,0.01,WeatherDisplay:10.37,2013-02-01 20:19:00,
2013-02-01 12:24:00,49.6,45.9,29.31,SW,225,1.2,1.2,87,0.00,CLR,,0.01,WeatherDisplay:10.37,2013-02-01 20:24:00,
2013-02-01 12:29:00,49.8,46.1,29.31,SE,135,1.2,1.2,87,0.00,CLR,,0.01,WeatherDisplay:10.37,2013-02-01 20:29:00,
2013-02-01 12:34:00,50.0,46.0,29.31,SW,225,2.3,2.3,86,0.00,CLR,,0.01,WeatherDisplay:10.37,2013-02-01 20:34:00,
2013-02-01 12:39:00,50.0,46.0,29.31,West,270,2.3,2.3,86,0.00,CLR,,0.01,WeatherDisplay:10.37,2013-02-01 20:39:00,
2013-02-01 12:44:00,50.0,46.3,29.30,SSW,202,1.2,1.2,87,0.00,CLR,,0.01,WeatherDisplay:10.37,2013-02-01 20:44:00,
2013-02-01 12:49:00,51.3,47.8,29.30,SSW,202,1.2,1.2,88,0.00,CLR,,0.01,WeatherDisplay:10.37,2013-02-01 20:49:00,
2013-02-01 12:54:00,53.2,49.2,29.30,SSE,158,2.3,2.3,86,0.00,CLR,,0.01,WeatherDisplay:10.37,2013-02-01 20:54:00,
2013-02-01 12:59:00,54.3,49.3,29.30,SSW,202,2.3,2.3,83,0.00,CLR,,0.01,WeatherDisplay:10.37,2013-02-01 20:59:00,
2013-02-01 13:05:00,55.0,50.0,29.30,WSW,248,2.3,2.3,83,0.00,CLR,,0.01,WeatherDisplay:10.37,2013-02-01 21:05:00,
2013-02-01 13:10:00,54.7,49.3,29.30,West,270,1.4,1.4,82,0.00,CLR,,0.01,WeatherDisplay:10.37,2013-02-01 21:10:00,
2013-02-01 13:15:00,54.0,48.3,29.29,WNW,292,1.6,1.6,81,0.00,CLR,,0.01,WeatherDisplay:10.37,2013-02-01 21:15:00,
2013-02-01 13:20:00,53.1,47.1,29.29,WNW,292,2.3,2.3,80,0.00,CLR,,0.01,WeatherDisplay:10.37,2013-02-01 21:20:00,
2013-02-01 13:25:00,52.9,47.2,29.29,SW,225,4.6,4.6,81,0.00,CLR,,0.01,WeatherDisplay:10.37,2013-02-01 21:25:00,
2013-02-01 13:30:00,52.9,46.5,29.29,WNW,292,4.6,4.6,79,0.00,CLR,,0.01,WeatherDisplay:10.37,2013-02-01 21:30:00,
2013-02-01 13:35:00,53.1,47.7,29.28,West,270,2.3,2.3,82,0.00,CLR,,0.01,WeatherDisplay:10.37,2013-02-01 21:35:00,
2013-02-01 13:40:00,54.1,47.8,29.28,WNW,292,3.5,3.5,79,0.00,CLR,,0.01,WeatherDisplay:10.37,2013-02-01 21:40:00,
2013-02-01 13:45:00,53.6,47.6,29.28,SW,225,4.6,4.6,80,0.00,CLR,,0.01,WeatherDisplay:10.37,2013-02-01 21:45:00,
2013-02-01 13:50:00,53.6,48.2,29.28,SW,225,2.3,2.3,82,0.00,CLR,,0.01,WeatherDisplay:10.37,2013-02-01 21:50:00,
2013-02-01 13:55:00,54.3,48.6,29.28,SW,225,2.3,2.3,81,0.00,CLR,,0.01,WeatherDisplay:10.37,2013-02-01 21:55:00,
2013-02-01 14:00:00,54.7,48.6,29.27,SW,225,2.3,2.3,80,0.00,CLR,,0.01,WeatherDisplay:10.37,2013-02-01 22:00:00,
2013-02-01 14:05:00,54.7,48.6,29.27,WSW,248,2.3,2.3,80,0.00,CLR,,0.01,WeatherDisplay:10.37,2013-02-01 22:05:00,
2013-02-01 14:10:00,54.5,47.8,29.27,SSW,202,4.3,4.3,78,0.00,CLR,,0.01,WeatherDisplay:10.37,2013-02-01 22:10:00,
2013-02-01 14:15:00,54.3,47.3,29.27,West,270,4.7,4.7,77,0.00,CLR,,0.01,WeatherDisplay:10.37,2013-02-01 22:15:00,
2013-02-01 14:20:00,54.0,47.3,29.27,WSW,248,4.5,4.5,78,0.00,CLR,,0.01,WeatherDisplay:10.37,2013-02-01 22:20:00,
2013-02-01 14:25:00,53.8,47.8,29.27,SSW,202,3.5,3.5,80,0.00,CLR,,0.01,WeatherDisplay:10.37,2013-02-01 22:25:00,
2013-02-01 14:30:00,54.5,48.8,29.27,WSW,248,2.3,2.3,81,0.00,CLR,,0.01,WeatherDisplay:10.37,2013-02-01 22:30:00,
2013-02-01 14:35:00,55.2,49.2,29.27,SW,225,1.2,1.2,80,0.00,CLR,,0.01,WeatherDisplay:10.37,2013-02-01 22:35:00,
2013-02-01 14:40:00,55.8,49.7,29.27,WNW,292,2.3,2.3,80,0.00,CLR,,0.01,WeatherDisplay:10.37,2013-02-01 22:40:00,
2013-02-01 14:45:00,55.6,49.2,29.27,NE,45,2.3,2.3,79,0.00,CLR,,0.01,WeatherDisplay:10.37,2013-02-01 22:45:00,
2013-02-01 14:50:00,55.0,48.3,29.27,WSW,248,3.5,3.5,78,0.00,CLR,,0.01,WeatherDisplay:10.37,2013-02-01 22:50:00,
2013-02-01 14:55:00,54.3,47.6,29.27,WNW,292,3.5,3.5,78,0.00,CLR,,0.01,WeatherDisplay:10.37,2013-02-01 22:55:00,
2013-02-01 15:00:00,54.1,47.4,29.27,SW,225,4.6,4.6,78,0.00,CLR,,0.01,WeatherDisplay:10.37,2013-02-01 23:00:00,
2013-02-01 15:05:00,54.0,47.3,29.27,West,270,2.3,2.3,78,0.00,CLR,,0.01,WeatherDisplay:10.37,2013-02-01 23:05:00,
2013-02-01 15:10:00,54.3,47.9,29.27,WSW,248,2.3,2.3,79,0.00,CLR,,0.01,WeatherDisplay:10.37,2013-02-01 23:10:00,
2013-02-01 15:15:00,55.8,49.7,29.26,WNW,292,2.3,2.3,80,0.00,CLR,,0.01,WeatherDisplay:10.37,2013-02-01 23:15:00,
2013-02-01 15:20:00,56.8,50.4,29.26,SW,225,2.3,2.3,79,0.00,CLR,,0.01,WeatherDisplay:10.37,2013-02-01 23:20:00,
2013-02-01 15:25:00,57.2,49.7,29.26,WNW,292,2.3,2.3,76,0.00,CLR,,0.01,WeatherDisplay:10.37,2013-02-01 23:25:00,
2013-02-01 15:30:00,56.8,49.7,29.26,West,270,1.2,1.2,77,0.00,CLR,,0.01,WeatherDisplay:10.37,2013-02-01 23:30:00,
2013-02-01 15:35:00,57.2,49.7,29.26,NW,315,2.3,2.3,76,0.00,CLR,,0.01,WeatherDisplay:10.37,2013-02-01 23:35:00,
2013-02-01 15:40:00,56.7,49.2,29.26,West,270,2.3,2.3,76,0.00,CLR,,0.01,WeatherDisplay:10.37,2013-02-01 23:40:00,
2013-02-01 15:45:00,56.1,48.7,29.26,West,270,2.3,2.3,76,0.00,CLR,,0.01,WeatherDisplay:10.37,2013-02-01 23:45:00,
2013-02-01 15:50:00,55.6,48.1,29.26,NW,315,2.2,2.2,76,0.00,CLR,,0.01,WeatherDisplay:10.37,2013-02-01 23:50:00,
2013-02-01 15:55:00,54.9,47.4,29.26,WNW,292,2.3,2.3,76,0.00,CLR,,0.01,WeatherDisplay:10.37,2013-02-01 23:55:00,
2013-02-01 16:00:00,54.3,47.3,29.26,NE,45,1.2,1.2,77,0.00,CLR,,0.01,WeatherDisplay:10.37,2013-02-02 00:00:00,
2013-02-01 16:05:00,54.7,47.6,29.25,WNW,292,2.3,2.3,77,0.00,CLR,,0.01,WeatherDisplay:10.37,2013-02-02 00:05:00,
2013-02-01 16:10:00,55.0,48.6,29.26,WSW,248,1.2,1.2,79,0.00,CLR,,0.01,WeatherDisplay:10.37,2013-02-02 00:10:00,
2013-02-01 16:15:00,55.8,48.7,29.26,West,270,3.5,3.5,77,0.00,CLR,,0.01,WeatherDisplay:10.37,2013-02-02 00:15:00,
2013-02-01 16:20:00,55.6,48.1,29.26,NW,315,2.3,2.3,76,0.00,CLR,,0.01,WeatherDisplay:10.37,2013-02-02 00:20:00,
2013-02-01 16:25:00,55.0,47.6,29.26,WNW,292,1.6,1.6,76,0.00,CLR,,0.01,WeatherDisplay:10.37,2013-02-02 00:25:00,
2013-02-01 16:30:00,54.5,47.1,29.25,WNW,292,2.3,3.6,76,0.00,CLR,,0.01,WeatherDisplay:10.37,2013-02-02 00:30:00,
2013-02-01 16:35:00,53.8,46.4,29.25,NW,315,2.3,2.3,76,0.00,CLR,,0.01,WeatherDisplay:10.37,2013-02-02 00:35:00,
2013-02-01 16:40:00,52.9,45.5,29.25,WNW,292,2.3,2.3,76,0.00,CLR,,0.01,WeatherDisplay:10.37,2013-02-02 00:40:00,
2013-02-01 16:45:00,52.3,45.7,29.25,West,270,1.2,1.2,78,0.00,CLR,,0.01,WeatherDisplay:10.37,2013-02-02 00:45:00,
2013-02-01 16:50:00,52.3,45.7,29.25,NW,315,1.2,1.2,78,0.00,CLR,,0.01,WeatherDisplay:10.37,2013-02-02 00:50:00,
2013-02-01 16:55:00,51.6,45.0,29.25,NW,315,1.2,0.0,78,0.00,CLR,,0.01,WeatherDisplay:10.37,2013-02-02 00:55:00,
2013-02-01 17:00:00,51.1,44.8,29.25,West,270,2.0,2.0,79,0.00,CLR,,0.01,WeatherDisplay:10.37,2013-02-02 01:00:00,
2013-02-01 17:05:00,50.5,44.6,29.24,WNW,292,2.3,2.3,80,0.00,CLR,,0.01,WeatherDisplay:10.37,2013-02-02 01:05:00,
2013-02-01 17:10:00,50.2,44.2,29.25,WNW,292,2.3,2.3,80,0.00,CLR,,0.01,WeatherDisplay:10.37,2013-02-02 01:10:00,
2013-02-01 17:15:00,49.6,44.0,29.25,WNW,292,2.6,2.6,81,0.00,CLR,,0.01,WeatherDisplay:10.37,2013-02-02 01:15:00,
2013-02-01 17:20:00,49.1,43.8,29.25,WNW,292,2.3,2.3,82,0.00,CLR,,0.01,WeatherDisplay:10.37,2013-02-02 01:20:00,
2013-02-01 17:25:00,48.6,43.3,29.25,NW,315,0.0,0.0,82,0.00,CLR,,0.01,WeatherDisplay:10.37,2013-02-02 01:25:00,
2013-02-01 17:30:00,48.0,42.8,29.24,WNW,292,1.2,1.2,82,0.00,CLR,,0.01,WeatherDisplay:10.37,2013-02-02 01:30:00,
2013-02-01 17:35:00,47.7,42.8,29.25,WNW,292,1.4,1.4,83,0.00,CLR,,0.01,WeatherDisplay:10.37,2013-02-02 01:35:00,
2013-02-01 17:40:00,47.3,42.4,29.25,NW,315,1.2,1.2,83,0.00,CLR,,0.01,WeatherDisplay:10.37,2013-02-02 01:40:00,
2013-02-01 17:45:00,47.1,42.2,29.25,WNW,292,1.2,0.0,83,0.00,CLR,,0.01,WeatherDisplay:10.37,2013-02-02 01:45:00,
2013-02-01 17:50:00,46.8,42.2,29.25,West,270,0.0,0.0,84,0.00,CLR,,0.01,WeatherDisplay:10.37,2013-02-02 01:50:00,
2013-02-01 17:55:00,46.6,42.0,29.24,SW,225,0.2,0.2,84,0.00,CLR,,0.01,WeatherDisplay:10.37,2013-02-02 01:55:00,
2013-02-01 18:00:00,46.4,42.1,29.25,West,270,0.0,0.0,85,0.00,CLR,,0.01,WeatherDisplay:10.37,2013-02-02 02:00:00,
2013-02-01 18:05:00,46.2,42.0,29.25,NW,315,0.0,0.0,85,0.00,CLR,,0.01,WeatherDisplay:10.37,2013-02-02 02:05:00,
2013-02-01 18:10:00,46.2,42.0,29.25,WNW,292,1.2,1.2,85,0.00,CLR,,0.01,WeatherDisplay:10.37,2013-02-02 02:10:00,
2013-02-01 18:16:00,46.2,42.3,29.25,WNW,292,2.3,2.3,86,0.00,CLR,,0.01,WeatherDisplay:10.37,2013-02-02 02:16:00,
2013-02-01 18:21:00,46.2,42.3,29.25,WNW,292,2.3,2.3,86,0.00,CLR,,0.01,WeatherDisplay:10.37,2013-02-02 02:21:00,
2013-02-01 18:26:00,46.2,42.3,29.25,WNW,292,1.2,1.2,86,0.00,CLR,,0.01,WeatherDisplay:10.37,2013-02-02 02:26:00,
2013-02-01 18:31:00,45.9,41.9,29.26,West,270,1.2,1.2,86,0.00,CLR,,0.01,WeatherDisplay:10.37,2013-02-02 02:31:00,
2013-02-01 18:36:00,45.7,41.7,29.26,West,270,0.2,0.2,86,0.00,CLR,,0.01,WeatherDisplay:10.37,2013-02-02 02:36:00,
2013-02-01 18:41:00,45.3,41.4,29.26,NW,315,0.0,0.0,86,0.00,CLR,,0.01,WeatherDisplay:10.37,2013-02-02 02:41:00,
2013-02-01 18:46:00,45.1,41.2,29.26,NNW,338,0.0,0.0,86,0.00,CLR,,0.01,WeatherDisplay:10.37,2013-02-02 02:46:00,
2013-02-01 18:51:00,45.0,41.3,29.26,NE,45,2.3,2.3,87,0.00,CLR,,0.01,WeatherDisplay:10.37,2013-02-02 02:51:00,
2013-02-01 18:56:00,45.1,41.2,29.26,ENE,68,2.4,2.4,86,0.00,CLR,,0.01,WeatherDisplay:10.37,2013-02-02 02:56:00,
2013-02-01 19:01:00,45.7,41.4,29.26,NE,45,2.6,2.6,85,0.00,CLR,,0.01,WeatherDisplay:10.37,2013-02-02 03:01:00,
2013-02-01 19:06:00,46.2,41.7,29.26,ENE,68,2.3,2.3,84,0.00,CLR,,0.01,WeatherDisplay:10.37,2013-02-02 03:06:00,
2013-02-01 19:11:00,46.4,41.8,29.26,ENE,68,2.3,2.3,84,0.00,CLR,,0.01,WeatherDisplay:10.37,2013-02-02 03:11:00,
2013-02-01 19:16:00,46.4,41.8,29.27,East,90,2.3,2.3,84,0.00,CLR,,0.01,WeatherDisplay:10.37,2013-02-02 03:16:00,
2013-02-01 19:21:00,46.4,41.5,29.27,East,90,2.3,2.3,83,0.00,CLR,,0.01,WeatherDisplay:10.37,2013-02-02 03:21:00,
2013-02-01 19:26:00,46.4,41.5,29.27,East,90,1.2,1.2,83,0.00,CLR,,0.01,WeatherDisplay:10.37,2013-02-02 03:26:00,
2013-02-01 19:31:00,46.2,41.3,29.27,NE,45,1.2,1.8,83,0.00,CLR,,0.01,WeatherDisplay:10.37,2013-02-02 03:31:00,
2013-02-01 19:36:00,46.2,41.3,29.27,NE,45,1.2,1.2,83,0.00,CLR,,0.01,WeatherDisplay:10.37,2013-02-02 03:36:00,
2013-02-01 19:41:00,46.2,41.7,29.26,NW,315,1.2,1.2,84,0.00,CLR,,0.01,WeatherDisplay:10.37,2013-02-02 03:41:00,
2013-02-01 19:46:00,46.0,41.5,29.27,NW,315,1.2,1.2,84,0.00,CLR,,0.01,WeatherDisplay:10.37,2013-02-02 03:46:00,
2013-02-01 19:51:00,45.7,41.1,29.26,NW,315,1.2,0.0,84,0.00,CLR,,0.01,WeatherDisplay:10.37,2013-02-02 03:51:00,
2013-02-01 19:56:00,45.3,41.1,29.27,NNE,22,0.0,0.0,85,0.00,CLR,,0.01,WeatherDisplay:10.37,2013-02-02 03:56:00,
2013-02-01 20:01:00,45.0,40.7,29.27,NNE,22,0.0,0.0,85,0.00,CLR,,0.01,WeatherDisplay:10.37,2013-02-02 04:01:00,
2013-02-01 20:06:00,44.4,40.2,29.27,NNE,22,0.0,0.0,85,0.00,CLR,,0.01,WeatherDisplay:10.37,2013-02-02 04:06:00,
2013-02-01 20:11:00,44.1,40.1,29.27,West,270,0.2,0.2,86,0.00,CLR,,0.01,WeatherDisplay:10.37,2013-02-02 04:11:00,
2013-02-01 20:16:00,43.9,40.3,29.27,North,0,0.2,0.2,87,0.00,CLR,,0.01,WeatherDisplay:10.37,2013-02-02 04:16:00,
2013-02-01 20:21:00,43.7,40.1,29.27,NW,315,0.0,0.0,87,0.00,CLR,,0.01,WeatherDisplay:10.37,2013-02-02 04:21:00,
2013-02-01 20:26:00,43.7,40.1,29.27,NNE,22,0.7,0.7,87,0.00,CLR,,0.01,WeatherDisplay:10.37,2013-02-02 04:26:00,
2013-02-01 20:31:00,43.7,40.1,29.27,NNE,22,1.2,1.2,87,0.00,CLR,,0.01,WeatherDisplay:10.37,2013-02-02 04:31:00,
2013-02-01 20:36:00,43.5,39.9,29.27,NE,45,0.0,0.0,87,0.00,CLR,,0.01,WeatherDisplay:10.37,2013-02-02 04:36:00,
2013-02-01 20:41:00,43.5,39.9,29.27,ENE,68,0.0,0.0,87,0.00,CLR,,0.01,WeatherDisplay:10.37,2013-02-02 04:41:00,
2013-02-01 20:46:00,43.3,39.7,29.27,ENE,68,2.4,2.4,87,0.00,CLR,,0.01,WeatherDisplay:10.37,2013-02-02 04:46:00,
2013-02-01 20:51:00,43.7,40.1,29.27,NE,45,1.2,1.2,87,0.00,CLR,,0.01,WeatherDisplay:10.37,2013-02-02 04:51:00,
2013-02-01 20:56:00,44.2,40.6,29.27,NE,45,1.2,1.2,87,0.00,CLR,,0.01,WeatherDisplay:10.37,2013-02-02 04:56:00,
2013-02-01 21:01:00,44.2,40.6,29.27,North,0,0.5,0.5,87,0.00,CLR,,0.01,WeatherDisplay:10.37,2013-02-02 05:01:00,
2013-02-01 21:06:00,44.2,40.6,29.27,NNW,338,0.0,0.0,87,0.00,CLR,,0.01,WeatherDisplay:10.37,2013-02-02 05:06:00,
2013-02-01 21:11:00,44.1,40.1,29.27,NW,315,0.0,0.9,86,0.00,CLR,,0.01,WeatherDisplay:10.37,2013-02-02 05:11:00,
2013-02-01 21:16:00,43.9,40.3,29.27,NW,315,1.2,0.0,87,0.00,CLR,,0.01,WeatherDisplay:10.37,2013-02-02 05:16:00,
2013-02-01 21:21:00,44.1,40.4,29.26,SW,225,1.2,1.2,87,0.00,CLR,,0.01,WeatherDisplay:10.37,2013-02-02 05:21:00,
2013-02-01 21:26:00,44.2,40.6,29.27,WSW,248,0.9,0.9,87,0.00,CLR,,0.01,WeatherDisplay:10.37,2013-02-02 05:26:00,
2013-02-01 21:31:00,43.9,40.0,29.27,WSW,248,0.0,0.0,86,0.00,CLR,,0.01,WeatherDisplay:10.37,2013-02-02 05:31:00,
2013-02-01 21:36:00,43.7,39.8,29.27,West,270,1.2,1.2,86,0.00,CLR,,0.01,WeatherDisplay:10.37,2013-02-02 05:36:00,
2013-02-01 21:41:00,43.5,39.9,29.27,SW,225,0.5,0.5,87,0.00,CLR,,0.01,WeatherDisplay:10.37,2013-02-02 05:41:00,
2013-02-01 21:46:00,43.2,39.3,29.27,NE,45,1.2,1.2,86,0.00,CLR,,0.01,WeatherDisplay:10.37,2013-02-02 05:46:00,
2013-02-01 21:51:00,42.8,38.9,29.27,NE,45,0.5,0.5,86,0.00,CLR,,0.01,WeatherDisplay:10.37,2013-02-02 05:51:00,
2013-02-01 21:56:00,42.6,39.0,29.27,NNE,22,1.2,1.2,87,0.00,CLR,,0.01,WeatherDisplay:10.37,2013-02-02 05:56:00,
2013-02-01 22:01:00,42.4,38.8,29.27,North,0,1.2,1.2,87,0.00,CLR,,0.01,WeatherDisplay:10.37,2013-02-02 06:01:00,
2013-02-01 22:06:00,42.4,38.8,29.27,North,0,0.0,0.0,87,0.00,CLR,,0.01,WeatherDisplay:10.37,2013-02-02 06:06:00,
2013-02-01 22:11:00,42.4,38.8,29.27,SE,135,0.0,0.0,87,0.00,CLR,,0.01,WeatherDisplay:10.37,2013-02-02 06:11:00,
2013-02-01 22:16:00,42.6,39.0,29.27,East,90,1.2,1.4,87,0.00,CLR,,0.01,WeatherDisplay:10.37,2013-02-02 06:16:00,
2013-02-01 22:21:00,42.8,39.2,29.27,ENE,68,1.4,1.4,87,0.00,CLR,,0.01,WeatherDisplay:10.37,2013-02-02 06:21:00,
2013-02-01 22:26:00,43.0,39.4,29.27,ENE,68,2.3,2.3,87,0.00,CLR,,0.01,WeatherDisplay:10.37,2013-02-02 06:26:00,
2013-02-01 22:31:00,43.2,39.6,29.27,NE,45,2.3,2.3,87,0.00,CLR,,0.01,WeatherDisplay:10.37,2013-02-02 06:31:00,
2013-02-01 22:36:00,43.3,39.7,29.26,ENE,68,1.2,1.2,87,0.00,CLR,,0.01,WeatherDisplay:10.37,2013-02-02 06:36:00,
2013-02-01 22:41:00,43.5,39.6,29.26,SE,135,0.0,0.0,86,0.00,CLR,,0.01,WeatherDisplay:10.37,2013-02-02 06:41:00,
2013-02-01 22:46:00,43.3,39.4,29.26,ENE,68,1.2,1.2,86,0.00,CLR,,0.01,WeatherDisplay:10.37,2013-02-02 06:46:00,
2013-02-01 22:51:00,43.3,39.1,29.26,NE,45,1.8,1.8,85,0.00,CLR,,0.01,WeatherDisplay:10.37,2013-02-02 06:51:00,
2013-02-01 22:57:00,43.2,39.0,29.26,NE,45,0.0,0.0,85,0.00,CLR,,0.01,WeatherDisplay:10.37,2013-02-02 06:57:00,
2013-02-01 23:02:00,43.3,39.1,29.26,NE,45,0.2,0.2,85,0.00,CLR,,0.01,WeatherDisplay:10.37,2013-02-02 07:02:00,
2013-02-01 23:07:00,43.5,39.3,29.26,SSE,158,1.2,0.0,85,0.00,CLR,,0.01,WeatherDisplay:10.37,2013-02-02 07:07:00,
2013-02-01 23:12:00,43.2,38.7,29.26,ENE,68,1.2,1.2,84,0.00,CLR,,0.01,WeatherDisplay:10.37,2013-02-02 07:12:00,
2013-02-01 23:17:00,43.2,38.3,29.26,NE,45,1.2,1.2,83,0.00,CLR,,0.01,WeatherDisplay:10.37,2013-02-02 07:17:00,
2013-02-01 23:22:00,43.2,38.0,29.26,NE,45,2.3,2.3,82,0.00,CLR,,0.01,WeatherDisplay:10.37,2013-02-02 07:22:00,
2013-02-01 23:27:00,43.2,38.0,29.26,NE,45,1.4,1.4,82,0.00,CLR,,0.01,WeatherDisplay:10.37,2013-02-02 07:27:00,
2013-02-01 23:32:00,43.5,38.4,29.26,ENE,68,0.0,0.0,82,0.00,CLR,,0.01,WeatherDisplay:10.37,2013-02-02 07:32:00,
2013-02-01 23:37:00,43.3,38.2,29.26,NNW,338,1.2,0.0,82,0.00,CLR,,0.01,WeatherDisplay:10.37,2013-02-02 07:37:00,
2013-02-01 23:42:00,42.8,38.0,29.26,North,0,0.0,0.0,83,0.00,CLR,,0.01,WeatherDisplay:10.37,2013-02-02 07:42:00,
2013-02-01 23:47:00,42.3,37.5,29.26,NNW,338,0.9,0.9,83,0.00,CLR,,0.01,WeatherDisplay:10.37,2013-02-02 07:47:00,
2013-02-01 23:52:00,42.1,37.3,29.26,NE,45,0.0,0.0,83,0.00,CLR,,0.01,WeatherDisplay:10.37,2013-02-02 07:52:00,
2013-02-01 23:57:00,42.3,37.5,29.26,East,90,1.2,1.2,83,0.00,CLR,,0.01,WeatherDisplay:10.37,2013-02-02 07:57:00,